Benton Harbor, MI

3:00 PM EST on February 25, 2017 (GMT -0500)
Southwest Michigan Regional

Weather History for KBEH - July, 2013

Change the Weather History Date:

Sunday, July 14, 2013

  Actual Average Record
Temperature  
Mean Temperature 76 °F -  
Max Temperature 90 °F 83 °F 94 °F (1968)
Min Temperature 64 °F 62 °F 46 °F (1950)
Cooling Degree Days 11    
Growing Degree Days 26 (Base 50)    
Moisture  
Dew Point 67 °F    
Average Humidity 71    
Maximum Humidity 93    
Minimum Humidity 48    
Precipitation  
Precipitation 0.00 in - - ()
Sea Level Pressure  
Sea Level Pressure 30.20 in    
Wind  
Wind Speed 4 mph (East)    
Max Wind Speed 9 mph    
Max Gust Speed -    
Visibility 10 miles    
Events      
Averages and records for this station are not official NWS values.
T = Trace of Precipitation, MM = Missing Value Source: NWS Daily Summary

Daily Weather History Graph

Daily Weather History Graph

Search for Another Location

Airport or City:

Trip Planner

Search our weather history database for the weather conditions in past years. The results will help you decide how hot, cold, wet, or windy it might be!

Date:

Astronomy

Jul. 14, 2013 Rise Set
Actual Time 6:22 AM EDT 9:20 PM EDT
Civil Twilight 5:48 AM EDT 9:53 PM EDT
Nautical Twilight 5:06 AM EDT 10:36 PM EDT
Astronomical Twilight 4:16 AM EDT 11:25 PM EDT
Moon 12:46 PM EDT (7/14) No Moon Set
Length of Visible Light 16h 04m
Length of Day
14h 58m
Waxing Crescent, 35% of the Moon is Illuminated
Jul 14
Waxing Crescent
Jul 15
First Quarter
Jul 22
Full
Jul 29
Last Quarter
Aug 6
New

Hourly Weather History & Observations

Time (EDT) Temp. Heat Index Dew Point Humidity Pressure Visibility Wind Dir Wind Speed Gust Speed Precip Events Conditions
12:53 AM 71.1 °F - 63.0 °F 75% 30.17 in 10.0 mi ESE 4.6 mph - N/A   Clear
1:53 AM 71.1 °F - 63.0 °F 75% 30.17 in 10.0 mi East 5.8 mph - N/A   Scattered Clouds
2:53 AM 71.1 °F - 64.0 °F 78% 30.17 in 10.0 mi ESE 3.5 mph - N/A   Mostly Cloudy
3:53 AM 69.1 °F - 63.0 °F 81% 30.18 in 10.0 mi East 3.5 mph - N/A   Clear
4:53 AM 68.0 °F - 63.0 °F 84% 30.19 in 10.0 mi East 3.5 mph - N/A   Clear
5:53 AM 66.0 °F - 63.0 °F 90% 30.21 in 10.0 mi East 4.6 mph - N/A   Clear
6:53 AM 64.9 °F - 63.0 °F 93% 30.21 in 7.0 mi Calm Calm - N/A   Clear
7:53 AM 71.1 °F - 66.0 °F 84% 30.21 in 9.0 mi ESE 4.6 mph - N/A   Clear
8:53 AM 75.0 °F - 66.9 °F 76% 30.21 in 10.0 mi East 6.9 mph - N/A   Clear
9:53 AM 80.1 °F 82.9 °F 69.1 °F 69% 30.21 in 10.0 mi East 6.9 mph - N/A   Clear
10:53 AM 82.0 °F 84.9 °F 68.0 °F 62% 30.21 in 10.0 mi SSE 9.2 mph - N/A   Clear
11:53 AM 84.0 °F 87.0 °F 68.0 °F 58% 30.22 in 10.0 mi ESE 4.6 mph - N/A   Partly Cloudy
12:53 PM 87.1 °F 90.6 °F 68.0 °F 53% 30.22 in 10.0 mi ESE 8.1 mph - N/A   Clear
1:53 PM 87.1 °F 88.9 °F 64.9 °F 48% 30.21 in 10.0 mi ESE 5.8 mph - N/A   Scattered Clouds
2:53 PM 88.0 °F 90.7 °F 66.9 °F 49% 30.21 in 10.0 mi ESE 5.8 mph - N/A   Mostly Cloudy
3:53 PM 86.0 °F 90.1 °F 69.1 °F 57% 30.20 in 10.0 mi North 3.5 mph - N/A   Mostly Cloudy
4:53 PM 84.0 °F 87.8 °F 69.1 °F 61% 30.20 in 10.0 mi Calm Calm - N/A   Scattered Clouds
5:53 PM 84.0 °F 87.8 °F 69.1 °F 61% 30.19 in 10.0 mi Calm Calm - N/A   Partly Cloudy
6:53 PM 84.0 °F 87.8 °F 69.1 °F 61% 30.19 in 10.0 mi North 4.6 mph - N/A   Scattered Clouds
7:53 PM 81.0 °F 84.1 °F 69.1 °F 67% 30.19 in 10.0 mi NNW 4.6 mph - N/A   Clear
8:53 PM 79.0 °F - 69.1 °F 72% 30.20 in 10.0 mi Calm Calm - N/A   Clear
9:53 PM 73.9 °F - 68.0 °F 82% 30.21 in 10.0 mi Calm Calm - N/A   Clear
10:53 PM 73.0 °F - 68.0 °F 84% 30.22 in 8.0 mi Calm Calm - N/A   Clear
11:53 PM 73.0 °F - 69.1 °F 87% 30.22 in 7.0 mi Calm Calm - N/A   Clear